GFSNW_con_mucape_159.txt.gz
CAPE
0 0 0 0 0 0 0 0 0 0 0 0 0 0 0 0 0 0 0 0 0 0 0 0 0 0 0 0 0 0 0 0 0 0 0 0 0 0 0 0 0 0 0 0
0 0 0 0 0 0 0 0 0 0 0 0 0 0 0 0 0 0 0 0 0 0 0 0 0 0 0 0 0 0 0 0 0 0 0 0 0 0 0 0 0 0 0 0
0 0 0 0 0 0 0 0 0 0 0 0 0 0 0 0 0 0 0 0 0 0 0 0 0 0 0 0 0 99 0 0 0 0 0 0 0 0 0 0 0 0 0 0
0 0 0 0 0 0 0 0 0 0 0 0 0 0 0 0 0 0 0 0 0 0 0 0 0 0 0 0 0 0 0 0 0 0 0 0 0 0 0 0 0 0 0 0
0 0 0 0 0 0 0 0 0 0 0 0 0 0 0 0 0 0 0 0 0 0 0 0 0 0 0 0 0 0 0 0 0 1 0 0 0 0 0 0 0 0 0 0
0 0 0 0 0 0 0 0 0 0 0 0 0 0 0 0 0 0 0 0 0 3 0 0 0 0 0 0 0 0 0 0 0 0 9 7 0 0 0 0 0 0 0 0
0 0 0 0 0 0 0 0 0 0 0 0 0 0 0 0 0 0 0 0 0 0 0 0 0 0 0 0 0 0 0 0 0 3 11 0 2 22 32 15 4 0 0 0
0 0 0 0 0 0 0 0 0 0 0 0 0 0 0 0 0 0 0 0 0 0 0 0 0 0 0 0 0 1 23 10 2 2 1 0 0 37 36 36 29 36 14 18
0 0 0 0 0 0 0 0 0 0 0 0 0 0 0 0 0 0 0 0 0 0 0 0 0 0 0 0 0 0 0 2 3 2 29 11 5 33 36 11 20 44 34 215
0 0 0 0 0 0 0 0 0 0 0 0 0 0 0 0 0 0 0 0 0 0 0 0 0 0 0 0 0 0 0 7 0 0 3 0 1 53 42 33 0 51 110 102
0 0 0 0 0 0 0 0 0 0 0 0 0 0 0 0 0 0 0 0 0 0 0 1 5 6 18 18 22 42 55 56 56 15 0 0 3 72 49 16 28 43 249 477
0 0 0 0 0 0 0 0 0 0 0 0 0 0 0 0 0 0 0 0 0 0 0 0 1 7 8 13 3 57 54 47 9 53 76 42 38 28 93 27 21 11 212 672
0 0 0 0 0 0 0 0 0 0 0 0 0 0 0 0 0 0 0 0 0 0 0 4 17 16 17 6 6 38 53 46 13 0 3 28 34 37 200 65 7 10 211 829
0 0 0 0 0 0 0 0 0 0 0 0 0 0 0 0 0 0 0 1 1 1 0 5 3 6 9 0 24 20 0 8 0 0 2 7 121 111 167 82 3 41 618 944
0 0 0 0 0 0 0 0 0 0 0 0 0 0 0 0 0 1 0 16 20 27 13 0 0 8 5 0 0 0 0 0 1 0 0 8 18 25 93 64 28 69 660 630
0 0 0 0 0 0 0 0 0 0 0 0 0 0 0 0 8 41 55 59 55 31 12 5 5 2 2 0 0 0 0 0 0 0 56 136 41 27 12 38 40 58 294 387
0 0 0 0 0 0 0 0 2 14 31 0 0 0 1 6 8 9 29 52 49 51 44 33 30 37 26 0 0 0 0 0 0 0 0 0 0 0 0 13 37 54 73 145
0 0 0 0 0 0 0 0 1 0 0 0 0 0 5 18 20 21 7 11 28 19 31 27 13 19 19 1 0 0 0 0 1 26 13 0 0 0 3 25 15 39 53 84
10 5 0 0 0 0 11 17 0 0 0 0 0 0 0 0 2 1 5 0 0 0 0 0 8 1 0 0 0 2 24 33 40 19 3 1 0 0 0 0 0 30 38 162
0 0 0 0 13 25 5 0 0 0 0 0 0 0 0 0 0 0 4 5 2 0 0 1 0 0 1 0 0 0 0 0 0 26 18 7 0 0 0 0 0 43 10 84
0 0 0 5 23 19 0 0 0 0 0 0 0 6 0 6 4 21 16 0 7 0 1 33 10 11 33 19 32 57 65 8 0 10 13 12 4 0 0 0 0 16 12 39
1 1 1 0 0 0 0 0 0 0 0 4 5 0 0 0 17 38 9 0 0 0 0 0 11 2 10 2 4 1 12 34 70 61 36 36 23 0 0 0 0 6 6 60
0 0 0 0 0 0 0 0 0 0 0 0 0 0 20 1 6 6 0 0 0 0 0 1 0 4 1 11 11 12 15 10 18 52 51 50 28 6 0 0 0 0 6 3
0 0 0 0 0 0 0 0 2 0 0 0 0 2 28 21 0 0 0 0 0 0 0 0 1 2 8 25 10 11 0 0 24 28 32 38 40 13 0 2 0 0 1 1
0 0 0 0 0 0 1 8 20 4 25 0 0 0 0 0 0 0 0 0 1 1 0 1 5 8 18 18 8 0 0 0 0 0 4 38 20 8 1 0 2 0 0 11
4 0 0 0 0 0 2 5 9 12 31 40 0 0 0 0 0 0 20 6 0 0 0 0 0 27 37 30 7 4 1 0 0 0 11 30 23 3 0 6 0 0 0 34
0 0 0 0 0 0 0 5 11 44 57 0 0 0 0 0 0 0 0 0 15 0 0 54 48 42 6 35 33 9 21 1 0 0 18 53 49 28 7 30 26 7 53 134

GFSNW_con_mucape_162.txt.gz
CAPE
0 0 0 0 0 0 0 0 0 0 0 0 0 0 0 0 0 0 0 0 0 0 0 0 0 0 0 0 0 0 0 0 0 0 0 0 0 0 0 0 0 0 0 0
0 0 0 0 0 0 0 0 0 0 0 0 0 0 0 0 0 0 0 0 0 0 0 0 0 0 0 0 0 0 0 0 0 0 0 0 0 0 0 0 0 0 0 0
0 0 0 0 0 0 0 0 0 0 0 0 0 0 0 0 0 0 0 0 0 0 0 0 0 0 0 0 0 0 0 0 0 0 0 0 0 0 0 0 0 0 0 0
0 0 0 0 0 0 0 0 0 0 0 0 0 0 0 0 0 0 0 0 0 0 0 0 0 0 0 0 0 0 0 0 0 0 0 0 0 0 0 0 0 0 0 0
0 0 0 0 0 0 0 0 0 0 0 0 0 0 0 0 0 0 0 0 0 0 0 0 0 0 0 0 0 0 0 0 0 0 0 0 0 0 0 0 0 0 0 0
0 0 0 0 0 0 0 0 0 0 0 0 0 0 0 0 0 0 0 0 0 0 0 0 0 0 0 0 0 0 0 0 0 0 0 3 0 0 0 0 0 0 0 0
0 0 0 0 0 0 0 0 0 0 0 0 0 0 0 0 0 0 0 0 0 0 0 0 0 0 0 0 0 0 0 0 0 0 0 0 0 0 2 0 0 0 0 0
0 0 0 0 0 0 0 0 0 0 0 0 0 0 0 0 0 0 0 0 0 0 0 0 0 0 0 0 0 0 0 0 0 0 0 0 0 5 32 23 18 6 0 8
0 0 0 0 0 0 0 0 0 0 0 0 0 0 0 0 0 0 0 0 0 0 0 0 0 0 0 0 0 0 0 0 0 0 0 0 0 3 42 14 0 4 14 32
0 0 0 0 0 0 0 0 0 0 0 0 0 0 0 0 0 0 0 0 0 0 0 0 0 0 0 0 0 0 0 0 0 0 0 0 29 27 96 42 0 0 47 174
0 0 0 0 0 0 0 0 0 0 0 0 0 0 0 0 0 0 0 0 0 0 0 0 0 0 0 2 0 5 4 15 0 10 11 0 9 74 104 18 21 7 5 26
0 0 0 0 0 0 0 0 0 0 0 0 0 0 0 0 0 0 0 0 0 0 0 0 3 6 7 4 11 20 38 17 15 43 38 64 55 35 32 61 57 45 22 3
0 0 0 0 0 0 0 0 0 0 0 0 0 0 0 0 0 0 0 0 0 0 0 0 0 13 8 13 8 14 31 56 25 16 5 15 35 53 44 64 85 70 20 100
0 0 0 0 0 0 0 0 0 0 0 0 0 0 0 0 0 0 0 0 0 1 0 0 0 0 7 13 13 2 8 9 0 0 0 0 31 229 146 67 82 154 56 82
0 0 0 0 0 0 0 0 0 0 0 0 0 0 0 0 0 0 0 0 10 14 14 19 6 0 1 0 0 0 0 0 0 0 0 0 0 3 32 72 16 134 67 33
0 0 0 0 0 0 0 0 0 0 0 0 0 0 0 0 0 9 2 2 34 40 37 29 21 15 6 0 0 0 0 0 0 0 0 0 0 0 9 72 1 6 61 14
0 0 0 0 0 0 0 0 4 3 8 0 0 0 1 10 19 16 18 28 33 38 36 35 45 52 45 3 0 0 0 0 0 0 4 0 0 0 5 15 6 11 44 17
0 0 5 0 0 0 0 0 0 2 0 0 0 0 0 11 5 13 15 25 33 31 24 18 44 54 45 2 0 0 0 0 0 0 0 0 16 1 2 27 31 7 2 18
0 0 0 0 0 0 10 23 0 0 0 0 0 0 0 0 0 0 1 4 0 0 0 0 9 1 0 0 0 0 0 0 13 1 0 5 6 12 8 25 12 0 1 29
0 0 0 0 3 36 0 0 0 0 0 0 0 0 0 0 8 0 8 7 14 0 0 3 0 0 0 0 2 4 5 17 0 0 0 0 0 0 5 5 6 0 7 9
0 0 0 2 21 21 0 0 0 0 0 0 0 0 0 7 0 0 14 4 0 0 0 0 5 1 32 25 17 18 6 0 12 16 21 39 31 25 10 1 0 0 1 25
0 0 1 0 0 0 0 0 0 0 0 0 0 0 14 8 19 18 28 0 0 0 0 0 0 12 0 0 21 34 16 14 14 34 65 83 71 42 42 16 0 0 0 1
0 0 0 10 0 0 0 0 0 0 0 0 0 0 0 0 9 0 0 0 0 0 0 0 0 0 1 20 32 19 14 2 0 6 65 58 95 57 25 12 0 0 0 7
0 0 0 0 0 0 0 0 0 0 0 0 0 0 31 0 0 0 0 0 0 0 0 0 0 0 26 25 29 11 1 0 0 0 4 21 65 54 36 0 6 1 0 6
0 0 0 0 0 0 0 13 12 20 0 0 0 0 0 0 0 0 0 0 0 0 0 0 8 27 30 35 37 26 7 0 0 0 0 7 35 23 11 4 2 0 0 0
0 0 0 0 0 0 0 16 12 16 27 22 0 0 0 0 0 0 0 0 0 0 0 0 9 7 19 23 30 32 19 4 0 0 4 6 8 11 8 7 0 0 0 6
0 0 0 0 0 0 0 11 3 3 27 0 0 0 0 0 0 0 4 0 0 3 44 60 44 39 2 0 46 38 18 13 4 5 10 17 17 7 0 0 0 0 0 0

GFSNW_con_mucape_165.txt.gz
CAPE
0 0 0 0 0 0 0 0 0 0 0 0 0 0 0 0 0 0 0 0 0 0 0 0 0 0 0 0 0 0 0 0 0 0 0 0 0 0 0 0 0 0 0 0
0 0 0 0 0 0 0 0 0 0 0 0 0 0 0 0 0 0 0 0 0 0 0 0 0 0 0 0 0 0 0 0 0 0 0 0 0 0 0 0 0 0 0 0
0 0 0 0 0 0 0 0 0 0 0 0 0 0 0 0 0 0 0 0 0 0 0 0 0 0 0 0 0 0 0 0 0 0 0 0 0 0 0 0 0 0 0 0
0 0 0 0 0 0 0 0 0 0 0 0 0 0 0 0 0 0 0 0 0 0 0 0 0 0 0 0 0 0 0 0 0 0 0 0 0 0 0 0 0 0 0 0
0 0 0 0 0 0 0 0 0 0 0 0 0 0 0 0 0 0 0 0 0 0 0 0 0 0 0 0 0 0 0 0 0 0 0 0 0 0 0 0 0 0 0 0
0 0 0 0 0 0 0 0 0 0 0 0 0 0 0 0 0 0 0 0 0 0 0 0 0 0 0 0 0 0 0 0 0 0 0 0 0 0 0 0 0 0 0 0
0 0 0 0 0 0 0 0 0 0 0 0 0 0 0 0 0 0 0 0 0 0 0 0 0 0 0 0 1 2 0 0 0 0 0 0 0 0 0 0 0 0 0 0
0 0 0 0 0 0 0 0 0 0 0 0 0 0 0 0 0 0 0 0 0 0 0 0 0 0 0 0 0 0 0 0 0 0 0 0 0 0 0 0 0 0 4 23
0 0 0 0 0 0 0 0 0 0 0 0 0 0 0 0 0 0 0 0 0 0 0 0 0 0 0 0 0 0 0 0 0 0 0 0 0 0 16 13 0 0 1 11
0 0 0 0 0 0 0 0 0 0 0 0 0 0 0 0 0 0 0 0 0 0 0 0 0 0 0 0 0 0 0 0 0 0 0 0 0 19 74 106 28 20 7 26
0 0 0 0 0 0 0 0 0 0 0 0 0 0 0 0 0 0 0 0 0 0 0 0 0 0 0 1 0 0 3 9 5 5 13 0 32 78 142 90 67 91 86 84
0 0 0 0 0 0 0 0 0 0 0 0 0 0 0 0 0 0 0 0 0 0 0 12 9 51 25 27 22 34 146 124 107 157 35 43 71 10 0 71 100 66 101 96
0 0 0 0 0 0 0 0 0 0 0 0 0 0 0 0 0 0 0 0 0 0 0 0 10 75 47 78 93 87 122 180 294 146 88 94 52 51 139 139 133 63 54 55
0 0 0 0 0 0 0 0 0 0 0 0 0 0 0 0 0 0 0 0 0 0 0 0 0 0 14 29 69 74 57 114 81 84 20 3 0 289 204 59 40 33 101 75
0 0 0 0 0 0 0 0 0 0 0 0 0 0 0 0 0 0 0 0 0 6 5 1 8 6 17 21 8 5 3 12 55 20 1 55 0 0 0 37 51 25 118 131
0 0 0 0 0 0 0 0 0 0 0 0 0 0 0 0 0 0 0 2 2 6 11 20 21 20 41 39 17 0 0 11 0 8 0 0 0 0 13 33 30 17 173 232
0 0 0 0 0 0 0 0 0 0 0 0 0 0 0 6 16 14 14 16 27 27 36 33 30 50 29 45 33 28 9 0 0 0 0 0 0 27 49 0 0 23 229 320
0 0 0 7 0 0 0 0 0 0 0 0 0 0 0 8 13 68 13 33 20 7 3 0 17 33 38 24 5 3 0 0 0 9 4 1 0 0 0 7 11 70 214 235
0 0 0 0 1 0 1 17 11 5 0 0 0 0 0 0 0 0 4 10 70 3 12 10 17 31 27 14 23 12 2 0 0 7 9 11 12 21 129 215 244 260 279 221
0 0 0 0 8 25 10 0 0 0 0 0 0 0 0 0 0 1 3 11 118 71 26 1 0 0 0 2 22 59 47 135 133 62 191 104 61 123 160 149 198 282 226 146
0 0 0 0 21 23 0 0 0 0 0 0 0 0 0 0 0 32 41 55 7 0 0 67 60 11 88 30 24 27 106 152 184 122 174 203 308 384 399 369 288 266 197 128
0 0 0 0 0 26 0 0 0 0 0 16 0 32 0 0 11 0 0 0 0 0 0 0 0 41 19 0 0 0 17 33 46 76 191 250 314 404 454 480 322 255 191 196
0 0 0 0 2 0 0 0 0 0 8 9 60 12 7 8 0 0 0 0 0 0 0 0 0 3 2 13 33 38 38 125 137 72 51 90 140 205 337 383 163 121 95 141
0 0 0 0 0 0 0 0 0 45 52 60 0 0 57 0 0 0 0 0 0 0 0 0 0 0 2 6 28 38 72 92 84 40 21 28 87 140 72 74 70 11 31 52
0 0 0 0 0 7 0 11 20 46 44 0 5 0 0 0 0 0 0 0 0 0 0 0 0 1 25 15 22 42 55 45 84 18 9 9 83 116 64 23 43 19 70 72
0 0 0 0 0 0 0 0 0 11 7 20 1 0 0 0 0 0 0 0 0 0 0 12 31 0 4 10 42 50 66 109 51 4 20 47 66 95 39 43 33 69 93 83
0 0 0 0 0 0 0 0 0 8 85 89 21 0 0 0 0 0 0 0 0 7 13 30 35 36 32 21 38 41 112 30 91 87 46 49 40 50 62 32 185 64 17 5

GFSNW_con_mucape_168.txt.gz
CAPE
0 0 0 0 0 0 0 0 0 0 0 0 0 0 0 0 0 0 0 0 0 0 0 0 0 0 0 0 0 0 0 0 0 0 0 0 0 0 0 0 0 0 0 0
0 0 0 0 0 0 0 0 0 0 0 0 0 0 0 0 0 0 0 0 0 0 0 0 0 0 0 0 0 0 0 0 0 0 0 0 0 0 0 0 0 2 2 0
0 0 0 0 0 0 0 0 0 0 0 0 0 0 0 0 0 0 0 0 0 0 0 0 0 0 0 0 0 0 0 0 0 2 30 0 0 0 0 0 6 1 0 0
0 0 0 0 0 0 0 0 0 0 0 0 0 0 0 0 0 0 0 0 0 0 0 0 0 0 0 0 0 0 0 0 0 1 0 0 0 0 0 0 0 0 1 7
0 0 0 0 0 0 0 0 0 0 0 0 0 0 0 0 0 0 0 0 0 0 0 0 3 0 0 0 0 0 0 0 0 0 0 0 0 0 0 0 0 0 0 0
0 0 0 0 0 0 0 0 0 0 0 0 0 0 0 0 0 0 0 0 0 0 0 0 0 0 0 0 0 2 1 4 32 21 17 19 0 0 0 0 0 0 0 0
0 0 0 0 0 0 0 0 0 0 0 0 0 0 0 0 0 0 0 0 0 0 0 0 0 0 0 0 0 0 8 21 37 43 49 6 5 0 2 0 0 0 1 0
0 0 0 0 0 0 0 0 0 0 0 0 0 0 0 0 0 0 0 0 0 0 0 0 0 0 0 0 0 0 0 9 50 58 48 13 17 18 4 5 0 9 69 109
0 0 0 0 0 0 0 0 0 0 0 0 0 0 0 0 0 0 0 0 0 0 0 1 0 0 0 0 12 3 0 18 12 56 4 0 22 23 22 5 0 33 137 234
0 0 0 0 0 0 0 0 0 0 0 0 0 0 0 0 0 0 0 0 0 0 0 0 0 0 16 0 0 56 12 10 1 30 0 22 38 51 90 18 49 256 313 425
0 0 0 0 0 0 0 0 0 0 0 0 0 0 0 0 0 0 0 0 0 0 0 1 7 15 13 20 12 16 50 102 92 101 63 0 69 53 62 84 127 123 189 391
0 0 0 0 0 0 0 0 0 0 0 0 0 0 0 0 0 0 0 0 0 6 11 25 34 47 33 47 38 65 64 78 103 96 102 254 239 116 36 0 126 195 122 126
0 0 0 0 0 0 0 0 0 0 0 0 0 0 0 0 0 0 0 0 0 0 0 12 29 51 76 87 84 97 90 287 286 189 115 138 134 113 31 200 321 189 144 87
0 0 0 0 0 0 0 0 0 0 0 0 0 0 0 0 0 0 0 0 0 0 1 24 49 56 47 52 58 45 90 103 218 186 178 159 213 122 143 6 7 0 12 63
0 0 0 0 0 0 0 0 0 0 0 0 0 0 0 0 0 0 0 0 0 0 7 23 40 33 35 56 49 15 21 42 87 78 80 87 62 31 1 0 0 28 30 58
0 0 0 0 0 0 0 0 0 0 0 0 0 0 0 0 0 0 0 0 0 2 1 14 27 33 66 40 38 43 43 67 54 41 15 8 9 0 0 0 0 112 97 77
0 0 0 0 0 0 0 0 0 0 0 0 0 3 0 1 6 8 6 9 13 15 42 28 40 59 54 53 41 70 52 53 67 63 45 15 4 1 0 0 0 42 2 37
0 0 0 0 1 0 0 7 0 0 0 0 0 0 0 0 32 111 89 31 8 25 29 39 39 44 139 43 58 66 48 30 33 42 27 18 50 86 27 0 1 31 109 372
0 0 0 0 0 0 22 7 10 3 0 0 0 0 46 5 34 50 56 72 91 64 79 30 53 50 40 79 122 118 91 88 86 77 123 281 226 101 81 152 279 426 460 433
0 0 0 0 31 18 11 2 0 0 0 0 0 0 0 0 58 35 19 121 199 79 62 82 38 33 75 124 190 181 213 203 284 356 477 408 375 439 284 204 288 334 330 385
12 0 0 1 11 39 64 44 0 0 0 0 14 41 58 43 25 75 67 105 67 0 58 25 76 105 25 2 4 0 0 5 35 335 445 467 459 525 531 507 512 517 491 499
0 0 0 1 30 43 5 3 55 28 25 65 26 72 81 59 6 0 0 0 0 0 0 0 0 42 0 0 4 0 5 13 15 25 203 292 399 432 504 592 717 676 657 659
6 14 1 4 14 0 0 0 46 48 43 61 70 65 58 57 0 0 0 0 0 0 0 0 0 0 0 2 1 39 41 142 207 324 393 302 310 405 498 698 800 780 808 703
0 0 0 0 0 0 45 50 28 53 66 54 64 71 84 0 0 0 0 0 0 0 0 0 0 0 0 0 8 29 47 107 334 486 430 356 273 381 636 677 459 732 676 524
0 8 0 0 9 20 33 31 58 60 50 52 57 70 26 0 0 0 0 0 0 0 0 0 0 0 4 7 37 20 13 136 384 375 308 413 327 386 449 627 696 538 464 424
0 0 0 8 18 33 44 52 51 32 19 62 82 51 0 0 0 0 0 0 0 0 0 36 40 18 2 25 40 32 27 137 283 315 341 359 329 345 413 227 378 545 502 488
0 0 0 2 5 7 26 36 35 9 33 36 65 0 0 0 0 0 0 0 16 31 26 75 114 451 374 169 142 251 121 159 254 179 163 80 74 133 625 610 541 500 458 544

GFSNW_con_mucape_171.txt.gz
CAPE
0 0 0 0 0 0 0 0 0 0 0 0 0 0 0 0 0 0 0 0 0 0 0 0 0 0 0 0 0 0 0 0 0 0 0 0 0 1 0 0 0 0 0 2
0 0 0 0 0 0 0 0 0 0 0 0 0 0 0 0 0 0 0 0 0 0 0 0 0 0 0 0 0 0 0 0 0 1 3 10 0 0 0 5 6 17 24 75
0 0 0 0 0 0 0 0 0 0 0 0 0 0 0 0 0 0 0 0 0 0 0 0 0 0 0 0 0 0 0 0 1 10 40 29 6 9 0 0 17 30 33 55
0 0 0 0 0 0 0 0 0 0 0 0 0 0 0 0 0 0 0 0 0 0 0 0 0 0 0 0 0 0 0 0 0 1 4 0 6 19 15 8 7 15 14 34
0 0 0 0 0 0 0 0 0 0 0 0 0 0 0 0 0 0 0 0 0 0 0 0 4 5 8 6 12 0 0 2 0 9 16 12 2 12 14 15 13 2 0 6
0 0 0 0 0 0 0 0 0 0 0 0 0 0 0 0 0 0 0 0 0 0 0 0 0 0 0 0 12 21 22 15 38 27 25 43 43 8 6 13 23 29 29 23
0 0 0 0 0 0 0 0 0 0 0 0 0 0 0 0 0 0 0 0 0 0 0 0 0 0 0 0 0 4 6 18 93 62 84 51 39 57 50 30 36 29 25 24
0 0 0 0 0 0 0 0 0 0 0 0 0 0 0 0 0 0 0 0 0 0 0 0 0 0 0 0 0 4 7 25 57 92 101 46 59 50 47 54 33 29 58 53
0 0 0 0 0 0 0 0 0 0 0 0 0 0 0 0 0 0 0 0 0 0 0 0 0 0 0 0 25 15 21 51 77 71 4 4 49 28 21 25 15 23 15 121
0 0 0 0 0 0 0 0 0 0 0 0 0 0 0 0 0 0 0 0 0 0 0 0 0 0 36 0 14 58 73 82 67 91 93 31 29 38 27 66 80 578 478 678
0 0 0 0 0 0 0 0 0 0 0 0 0 0 0 0 0 0 5 0 0 0 0 3 12 36 44 55 67 72 94 107 124 94 106 34 65 50 99 144 172 313 324 404
0 0 0 0 0 0 0 0 0 0 0 0 0 0 0 0 0 0 0 0 2 22 20 48 44 54 76 79 77 65 67 81 90 82 111 207 155 305 134 65 66 151 299 267
0 0 0 0 0 0 0 0 0 0 0 0 0 0 0 0 0 0 0 0 3 9 6 11 44 40 63 56 73 85 83 104 192 295 80 231 147 223 181 70 171 317 109 49
0 0 0 0 0 0 0 0 0 0 0 0 3 0 0 0 0 0 0 0 0 0 12 15 15 30 37 53 57 38 67 63 154 180 215 401 131 171 245 124 123 22 10 4
0 0 0 0 0 0 0 0 4 3 0 0 0 0 0 0 0 0 0 0 1 5 13 32 37 46 51 59 36 23 29 66 70 62 189 352 350 255 133 77 52 38 45 35
0 0 0 0 0 0 0 0 7 10 0 0 0 0 0 8 6 0 1 13 21 28 39 58 51 47 33 24 41 21 50 55 77 55 65 56 52 48 32 33 24 17 1 22
0 0 0 0 0 0 0 0 2 0 10 0 8 39 20 0 11 38 44 38 39 37 39 34 32 46 22 52 29 54 59 71 85 77 73 63 64 65 51 45 16 4 4 1
0 0 0 0 0 0 0 11 0 3 0 0 0 33 5 14 14 200 51 57 63 43 59 34 36 23 127 33 64 73 133 130 79 72 65 66 89 75 83 116 129 64 23 12
0 0 0 4 0 1 45 0 0 0 0 0 0 16 40 33 56 60 50 427 143 45 21 73 29 86 51 86 182 146 199 227 239 248 181 108 100 124 305 162 170 177 72 50
0 0 0 0 37 0 1 10 13 0 0 0 0 25 45 52 22 142 249 262 308 173 140 158 124 140 7 9 5 23 53 158 166 243 238 377 409 379 446 532 434 269 224 365
12 0 0 22 0 48 62 62 41 32 7 10 18 28 88 52 110 114 151 101 70 0 70 25 41 68 0 0 1 1 0 7 73 83 174 111 373 502 491 491 614 616 421 553
0 0 1 23 29 56 53 51 53 55 49 64 72 70 70 157 59 13 3 0 11 0 0 0 0 0 0 0 0 3 51 12 16 47 120 123 213 458 497 551 619 669 602 716
16 19 1 1 7 81 0 9 36 56 37 59 71 64 110 102 0 0 0 0 0 0 0 0 0 0 0 1 0 2 46 38 97 346 409 399 478 553 492 547 609 695 761 782
0 0 0 0 0 17 18 61 52 50 42 44 48 68 129 56 0 0 0 0 0 0 0 0 0 0 1 1 0 0 54 80 148 424 411 493 554 506 571 579 767 887 917 883
0 0 0 0 17 21 13 18 34 38 18 42 37 279 75 30 3 0 0 0 0 0 0 0 0 0 0 0 44 34 10 67 246 370 466 504 457 617 654 519 614 591 970 789
0 4 3 8 14 41 6 8 24 36 45 27 75 50 17 0 0 0 0 0 0 0 49 22 151 236 140 336 190 184 111 91 225 337 381 586 568 596 637 649 773 745 712 662
0 0 0 1 7 27 8 6 10 51 31 11 19 4 50 0 0 0 0 45 10 63 50 613 329 546 403 507 507 156 78 96 427 480 437 530 446 393 499 586 704 717 644 707

GFSNW_con_mucape_174.txt.gz
CAPE
0 0 0 0 0 0 0 0 0 0 0 0 0 0 0 0 0 0 0 0 0 0 0 0 2 9 0 0 0 0 0 0 0 0 2 0 0 0 1 1 0 0 0 1
0 0 0 0 0 0 0 0 0 0 0 0 0 0 0 0 0 0 0 0 0 0 0 0 0 0 2 0 0 0 0 0 0 0 0 5 3 0 0 0 9 200 4 31
0 0 0 0 0 0 0 0 0 0 0 0 0 0 0 0 0 0 0 0 0 0 0 0 0 0 0 0 0 19 0 0 0 0 2 10 24 8 14 8 5 7 28 54
0 0 0 0 0 0 0 0 0 0 0 0 0 0 0 0 0 4 0 0 0 0 0 0 0 0 0 9 2 0 0 0 0 0 0 0 0 3 22 39 20 13 19 24
0 0 0 0 0 0 0 0 0 0 0 0 0 0 0 0 0 0 0 3 0 0 0 0 0 1 11 12 22 0 0 0 0 0 0 0 0 0 8 25 20 20 21 1
0 0 0 0 0 0 0 0 0 0 0 0 0 0 0 0 0 0 0 0 0 0 1 0 0 0 0 0 0 15 25 13 8 0 2 2 0 0 1 12 23 38 32 39
0 0 0 0 0 0 0 0 0 0 0 0 0 0 0 0 0 0 0 0 0 0 0 0 0 0 0 0 0 0 6 169 100 42 79 54 0 24 28 15 29 19 22 39
0 0 0 0 0 0 0 0 0 0 0 0 0 0 0 0 0 0 0 0 0 0 0 0 0 0 0 0 0 0 0 24 26 35 32 0 0 2 29 58 5 30 53 33
0 0 0 0 0 0 0 0 0 0 0 0 0 0 0 0 0 0 0 0 0 0 0 0 0 0 0 0 0 0 0 14 88 11 4 0 14 14 9 13 0 8 140 86
0 0 0 0 0 0 0 0 0 0 0 0 0 0 0 0 0 0 0 0 1 0 0 0 0 0 2 0 0 45 39 123 61 75 107 4 15 21 29 7 2 299 385 657
0 0 0 0 0 0 0 0 0 0 0 0 0 0 0 0 0 0 0 0 8 0 0 0 2 0 9 27 33 41 102 98 98 238 103 23 112 104 157 380 236 113 366 380
0 0 0 0 0 0 0 0 0 0 0 0 0 0 0 0 0 0 0 0 0 16 24 41 18 58 42 107 12 72 60 115 75 128 124 202 38 55 98 222 166 119 252 338
0 0 0 0 0 0 0 0 0 0 0 0 0 0 0 0 0 0 0 0 0 0 11 0 0 12 5 17 34 58 43 72 61 139 120 143 131 160 81 165 244 64 350 220
0 0 0 0 0 0 0 0 0 0 0 0 3 0 0 0 0 0 0 0 0 0 0 0 7 3 0 14 35 26 20 83 48 59 82 173 149 121 137 97 124 104 47 84
0 0 0 0 0 0 0 0 3 12 0 0 0 0 0 0 0 0 0 0 0 0 1 15 19 27 40 36 40 23 18 42 35 38 268 346 63 156 124 234 251 173 76 197
0 0 0 0 0 0 0 0 17 5 12 0 0 0 0 0 2 4 0 0 7 23 33 33 39 45 36 21 24 6 19 38 115 67 28 45 66 11 10 127 106 118 46 66
0 0 0 0 0 0 0 0 0 0 15 0 0 0 16 0 9 19 24 33 23 37 38 32 32 26 43 26 7 1 20 49 191 66 73 189 48 73 51 23 35 12 9 13
0 0 0 0 0 0 9 3 0 0 0 0 0 9 31 55 54 65 43 37 53 42 19 24 49 35 52 26 36 118 126 228 78 107 184 153 79 49 107 82 114 110 86 239
0 0 0 0 0 9 20 0 0 2 0 0 0 0 16 36 86 54 359 567 201 31 75 79 42 31 103 18 4 20 28 63 78 103 206 268 146 167 170 111 180 177 321 206
0 0 0 0 18 0 0 2 18 3 0 0 0 14 23 44 148 142 566 399 359 237 169 78 164 60 12 0 17 1 0 3 7 32 33 166 202 200 172 321 468 423 348 487
0 0 0 8 0 15 46 55 27 9 1 5 5 41 85 197 180 91 163 43 80 36 0 0 24 22 59 0 5 3 0 0 0 34 17 13 172 134 204 107 425 563 440 551
0 0 0 16 23 19 35 31 43 10 31 81 67 73 84 300 91 93 62 0 0 0 0 0 0 0 0 1 0 0 0 3 12 19 94 37 105 59 216 360 415 442 524 801
16 1 1 0 8 4 0 15 29 92 105 120 62 48 446 172 19 0 0 0 0 7 0 0 0 0 0 1 5 18 0 12 29 77 185 337 359 615 593 525 699 527 769 675
0 0 0 0 1 0 15 41 64 21 14 10 38 127 103 46 0 0 0 0 0 0 0 0 0 6 1 13 24 75 1 27 14 94 285 327 537 645 784 853 942 669 842 959
0 0 0 0 0 24 23 17 22 24 25 34 22 266 219 47 0 0 0 0 0 0 0 0 15 10 39 133 116 99 37 47 117 158 264 412 410 647 746 719 683 724 835 1041
0 0 1 1 5 23 24 8 27 22 38 37 131 127 54 13 29 11 2 18 0 0 17 0 87 102 288 253 173 94 15 178 180 336 268 382 534 514 577 497 540 832 884 897
0 0 0 0 3 14 17 22 23 6 31 21 15 36 50 48 32 41 50 68 88 35 67 86 101 211 94 81 25 2 184 156 111 157 255 557 648 331 215 201 154 329 751 851